Temperature
25 24 24 24 24 23 23 24 24 25 25 26 26 26 25 24 23 22 21 20 20 19 19 18 18 17 16 16 15 15 14 14 13 13 13 13 13 12 12 13 12 12 12 12
24 24 23 23 24 24 23 24 24 24 24 26 26 25 24 24 23 22 21 21 20 19 19 18 18 17 17 16 15 15 15 14 14 13 13 13 13 13 13 13 12 12 12 12
24 24 23 24 25 24 24 24 24 24 25 26 25 25 24 24 23 22 21 21 20 20 19 19 19 18 17 16 16 15 15 14 14 14 13 13 13 13 13 13 13 13 13 13
24 24 22 25 25 24 24 24 25 24 25 25 25 24 23 23 22 22 21 21 20 20 19 19 18 18 17 16 16 15 15 14 14 14 13 13 13 13 13 13 13 13 13 13
23 23 23 24 24 24 24 24 25 25 25 24 23 23 24 23 22 22 21 21 21 20 20 19 18 18 17 17 16 15 15 15 14 14 14 14 13 13 13 13 13 13 13 13
22 22 22 24 24 23 24 24 25 24 24 23 23 24 26 23 22 21 21 21 21 20 20 19 18 18 17 17 16 16 15 15 15 14 14 14 14 13 13 13 13 13 13 13
22 22 23 24 22 22 23 24 23 23 23 22 23 24 23 22 21 21 21 21 21 20 20 19 18 18 17 17 16 16 15 15 15 15 14 14 14 14 14 13 13 13 13 13
22 22 23 23 22 23 24 23 22 22 22 21 21 21 21 21 21 21 21 21 21 20 19 19 18 18 17 17 16 16 16 15 15 15 15 14 14 14 14 13 13 13 13 13
23 23 22 21 21 21 21 21 21 21 20 20 20 20 20 20 20 21 21 21 21 20 19 19 18 18 17 17 16 16 16 15 15 15 14 14 14 14 13 13 13 13 13 13
21 22 22 20 20 19 19 19 19 19 19 19 20 20 20 20 20 20 20 20 20 20 19 19 18 18 17 17 16 16 15 15 15 14 14 14 14 13 13 13 13 13 12 12
20 22 21 20 19 19 18 19 19 19 19 19 19 19 20 20 20 20 20 20 20 19 19 19 18 18 17 17 16 16 15 15 14 14 14 14 13 13 13 13 13 12 12 12
20 20 20 20 18 17 17 17 18 18 18 18 18 19 19 19 19 19 19 19 19 19 19 18 18 18 17 17 16 15 15 15 14 14 14 13 13 13 13 12 12 12 12 12
17 16 16 16 16 16 16 16 16 17 17 17 18 18 18 18 19 19 19 19 19 19 19 18 17 17 17 17 16 15 15 15 14 14 13 13 12 12 12 12 12 11 11 11
14 14 15 15 15 14 15 15 16 16 16 17 17 17 17 18 18 18 18 19 18 18 18 17 17 17 17 16 16 15 15 14 14 14 13 13 12 12 11 11 11 10 10 10
12 12 13 13 13 13 14 14 14 15 16 16 16 16 17 17 17 17 17 17 17 17 17 17 16 16 16 16 15 15 14 14 14 13 13 12 12 11 11 10 10 10 9 10
12 12 12 12 12 12 12 13 13 14 14 15 15 15 15 16 16 16 16 16 16 16 16 16 16 16 16 15 15 14 14 14 13 13 12 12 11 11 10 10 9 9 9 9
11 11 11 11 11 11 11 12 12 12 13 13 14 14 14 14 15 15 16 15 15 15 15 15 15 15 15 15 14 14 13 13 13 12 11 11 10 10 10 9 9 9 8 8
10 10 10 10 10 10 11 11 11 12 12 12 13 13 13 13 14 14 14 14 14 14 14 14 14 14 14 14 14 13 13 12 12 11 11 10 10 9 9 9 8 8 8 8
9 9 9 9 9 9 10 10 11 11 11 12 12 12 12 12 12 13 13 13 13 13 13 13 14 13 13 13 13 12 12 11 11 10 10 10 9 9 8 8 8 7 7 7
8 8 8 8 9 9 9 10 10 10 10 11 11 11 11 12 12 12 12 12 12 12 12 12 12 12 12 12 12 11 11 11 10 10 9 9 8 8 8 7 7 7 6 6
8 8 8 8 8 8 9 9 9 9 10 10 10 10 10 10 10 10 10 11 11 11 11 11 11 11 11 11 11 10 10 10 9 9 8 8 7 7 7 7 6 6 6 6
7 7 7 8 8 8 8 8 9 9 9 9 9 9 9 9 9 9 9 10 10 10 10 10 9 10 10 10 10 9 9 9 8 8 8 7 7 7 6 6 6 5 5 5
7 7 7 7 7 7 8 8 8 8 8 8 8 8 8 8 8 8 9 9 9 9 9 9 9 9 9 9 9 8 8 8 8 7 7 6 6 6 6 5 5 5 5 4
6 6 7 7 7 7 7 7 7 7 7 7 7 7 7 7 7 8 8 8 8 8 8 8 8 8 8 8 8 7 7 7 7 7 6 6 6 6 5 5 5 5 4 4
6 6 6 6 6 6 6 6 7 7 7 7 7 7 7 7 7 7 7 7 8 8 8 7 7 7 7 7 7 7 6 6 6 6 6 6 5 5 5 5 4 4 4 3
6 6 6 6 6 6 6 6 6 6 6 6 6 6 6 6 6 6 6 6 7 7 7 6 6 6 6 6 6 6 6 6 6 6 5 5 5 5 4 4 4 4 3 3
5 5 5 5 6 6 6 5 5 5 5 6 6 6 6 6 6 6 6 6 6 6 6 6 6 6 5 5 5 5 5 5 5 5 5 5 5 4 4 4 4 3 3 3
Wind_Speed
6 6 5 8 9 10 12 13 14 14 15 14 12 10 10 8 8 8 10 11 11 12 11 11 10 10 9 8 8 7 6 5 4 3 3 3 3 3 3 3 3 3 3 3
8 6 7 11 13 13 14 14 15 16 17 14 12 9 9 9 9 10 11 11 12 12 12 12 12 11 10 9 8 8 7 5 4 3 3 3 3 3 3 3 3 3 3 3
10 6 8 11 10 11 11 11 12 13 13 10 9 9 9 9 9 11 11 11 11 12 13 13 12 12 11 10 9 8 7 6 5 4 3 3 3 3 3 3 3 3 3 3
9 9 11 5 1 5 9 10 11 13 13 11 10 9 8 8 9 10 10 10 10 11 12 12 12 11 10 10 10 9 8 7 5 4 4 3 2 2 3 2 2 3 3 3
8 10 10 8 5 5 6 7 6 8 9 8 6 6 6 5 7 8 8 8 9 10 11 11 12 12 11 11 10 9 8 7 6 6 4 4 3 3 3 2 2 2 2 2
8 9 9 5 0 2 5 6 4 5 6 5 3 5 4 1 4 5 6 6 8 9 11 11 11 12 12 11 11 10 9 8 7 6 5 5 4 3 2 2 3 3 2 3
11 11 8 4 1 4 6 3 7 7 7 5 5 6 6 4 3 4 5 7 8 10 10 11 11 12 12 12 11 9 8 7 7 6 6 5 4 3 3 3 2 3 2 2
8 9 7 2 4 3 5 8 8 9 8 8 9 9 7 5 3 4 5 7 9 10 10 10 12 12 12 11 9 9 8 7 7 6 5 4 4 4 3 3 3 3 2 2
7 5 2 1 2 5 7 9 9 10 11 10 10 9 8 6 5 5 6 7 9 10 11 11 12 12 12 11 10 9 9 8 7 6 5 5 4 4 3 3 3 2 2 2
8 9 7 7 7 7 8 9 11 12 12 11 11 11 9 7 6 6 7 8 9 11 12 12 12 12 11 11 10 10 10 9 7 7 6 5 3 3 3 2 2 2 2 2
13 13 11 8 7 10 11 12 13 13 12 12 12 12 10 8 8 7 7 7 9 11 12 12 12 12 11 11 11 11 10 9 8 7 6 5 4 1 1 1 2 1 1 1
15 12 12 13 13 14 14 14 14 14 14 13 11 12 11 10 8 7 7 8 9 11 11 12 13 13 12 12 12 12 10 9 7 7 6 5 5 5 6 5 7 7 6 4
13 12 13 15 15 13 13 14 14 14 14 14 13 11 11 10 8 8 8 9 10 11 12 12 12 13 12 12 12 12 11 9 7 7 7 6 6 6 5 5 6 7 7 6
10 11 12 11 11 12 13 14 13 13 13 12 12 10 9 9 8 8 9 9 9 10 11 12 12 12 12 12 12 12 11 9 8 7 7 7 6 6 5 5 5 4 6 6
9 9 10 11 11 11 11 11 12 12 12 11 10 9 8 8 8 8 8 7 8 10 11 12 12 12 11 12 12 12 10 8 8 7 7 7 6 6 5 5 4 4 4 5
8 7 7 8 9 10 10 10 11 12 12 12 11 10 9 9 8 7 7 7 10 11 11 12 12 11 11 12 12 10 8 9 8 8 8 7 7 6 6 6 5 4 4 3
6 6 7 8 9 10 10 11 11 12 12 12 12 11 9 8 7 6 6 8 9 9 10 11 11 11 11 12 11 9 9 9 10 8 8 7 7 7 6 6 5 4 4 3
5 6 7 8 9 10 11 11 11 12 12 12 12 10 8 7 8 7 6 6 7 7 8 9 10 11 11 11 10 9 9 9 9 8 8 7 7 7 7 6 6 6 5 5
4 5 7 8 9 10 11 11 12 13 12 11 11 10 8 7 7 6 6 7 8 8 7 8 10 11 11 11 10 9 9 9 9 8 8 8 8 7 7 7 6 6 5 4
5 6 7 8 9 10 11 12 12 12 12 11 10 9 8 7 5 5 6 7 7 6 6 8 11 11 11 11 10 9 9 10 9 9 8 8 8 7 7 7 6 6 5 4
7 8 9 9 10 11 11 12 11 12 12 11 10 9 8 6 5 5 6 5 5 5 7 9 9 9 9 10 11 9 9 9 9 9 9 8 8 7 7 7 6 5 5 4
8 9 10 11 11 12 12 11 11 11 11 10 9 8 6 5 5 5 6 4 4 6 7 7 7 9 11 11 9 9 9 9 9 8 8 8 8 7 7 7 6 5 5 4
9 10 11 12 13 13 13 11 11 10 10 10 9 8 7 5 4 4 4 3 4 8 6 6 8 13 14 10 8 9 9 10 9 8 8 8 7 7 7 7 6 5 5 4
11 12 12 12 12 13 13 12 11 9 9 9 8 7 6 5 4 4 3 4 6 7 5 7 11 14 13 8 8 9 9 9 9 8 8 7 7 7 6 6 6 5 5 5
12 12 13 13 12 11 11 11 10 9 9 7 7 6 5 4 4 3 3 4 7 7 5 9 13 13 9 8 8 8 8 8 8 8 8 7 7 7 6 6 5 5 5 4
12 11 11 12 11 9 9 9 8 7 7 7 6 5 4 3 3 3 3 5 7 7 6 6 8 10 8 8 8 8 8 8 8 8 8 7 7 7 6 6 7 5 5 4
12 11 10 10 10 8 8 8 8 7 7 6 6 5 4 3 3 3 3 4 5 6 6 6 7 7 7 7 7 8 7 7 8 7 7 7 6 6 6 7 6 5 5 4
Wind_Direction
277 281 263 260 252 231 236 257 270 279 281 283 283 274 263 249 237 224 214 208 204 201 198 194 194 196 197 198 197 198 205 219 232 246 256 273 286 294 310 321 323 336 338 339
265 258 257 261 259 251 249 257 263 272 277 281 283 274 260 246 233 226 220 214 208 204 199 196 195 195 193 194 194 196 204 212 215 235 243 257 272 285 299 307 316 326 325 333
274 273 271 265 258 248 246 244 254 266 278 289 283 269 260 251 235 228 224 216 208 204 200 198 197 193 190 192 188 194 200 203 208 221 231 245 257 272 282 285 300 308 314 317
274 274 265 286 302 255 254 263 259 265 278 286 285 283 270 254 240 232 224 215 207 202 197 195 192 189 187 185 188 194 198 201 204 214 223 229 239 259 272 286 294 297 314 314
262 268 272 276 257 228 242 273 292 279 286 295 301 280 256 238 237 234 223 212 202 197 190 188 186 184 184 187 190 195 199 204 203 207 213 219 226 240 259 276 287 290 306 310
247 259 265 276 186 216 252 253 12 333 317 313 285 271 283 296 237 231 214 200 189 184 183 183 182 182 187 190 193 197 199 204 203 205 210 217 227 237 238 249 268 283 295 301
245 255 263 297 122 190 239 323 5 347 332 305 267 286 326 316 254 220 199 187 180 179 182 182 178 181 191 194 196 194 193 197 199 200 208 216 223 227 231 239 255 269 277 281
240 247 257 111 154 219 328 342 335 334 330 309 292 299 305 297 262 215 193 185 182 181 181 178 179 185 193 194 190 183 183 188 194 198 204 206 211 223 230 231 237 247 259 271
241 258 13 143 268 319 327 319 327 329 325 313 298 293 291 282 261 228 207 192 189 187 181 180 184 191 195 188 182 179 180 185 190 192 195 203 206 210 218 225 242 254 261 280
261 263 275 285 294 300 309 311 317 318 315 307 295 291 287 275 257 234 215 200 191 189 189 188 187 191 194 182 179 182 185 186 187 189 188 188 193 210 217 228 236 247 266 284
268 275 285 276 298 314 317 314 313 314 311 304 295 290 285 274 256 237 220 205 198 199 199 193 187 187 187 181 181 186 188 186 188 185 180 176 159 110 168 71 18 318 305 314
269 284 288 291 307 315 311 310 312 311 308 303 293 287 284 274 259 240 224 211 205 202 200 196 189 187 184 182 186 190 190 187 184 180 174 172 159 130 71 74 73 63 42 25
278 292 290 290 297 305 306 307 308 304 300 299 296 288 280 272 259 242 229 217 211 204 199 194 189 188 184 182 188 192 191 185 182 182 178 178 176 170 154 126 103 81 68 59
283 290 285 289 298 307 307 307 305 301 298 296 295 290 280 270 259 242 232 224 214 204 197 193 190 189 183 182 186 191 191 182 180 179 180 181 181 181 178 174 161 131 100 83
280 282 283 293 300 305 309 310 309 307 309 307 302 292 281 268 258 249 239 225 209 201 196 192 191 188 180 181 184 187 185 181 178 175 175 177 176 175 174 172 164 153 140 120
288 287 287 294 305 314 318 319 315 311 311 309 305 297 286 273 263 252 235 216 206 204 198 194 192 184 177 178 179 181 178 166 169 171 172 173 174 173 171 167 164 159 154 143
285 289 300 309 317 320 321 320 316 312 311 309 306 301 291 277 262 245 231 221 216 211 202 196 189 176 175 176 175 174 169 165 169 174 174 173 172 172 169 167 164 157 144 110
294 303 308 310 314 317 319 321 320 317 313 310 308 300 288 272 258 245 230 217 212 211 204 193 180 173 174 175 172 168 167 168 173 173 170 171 169 168 166 164 161 154 143 134
315 317 319 319 318 317 318 319 320 320 318 314 306 296 287 277 267 250 224 207 204 206 201 184 168 172 171 168 163 164 165 166 167 166 165 160 166 167 166 165 162 160 156 152
318 321 322 323 322 321 320 320 320 319 319 316 308 298 290 282 269 245 224 215 213 209 190 177 174 176 170 166 165 166 166 167 167 166 167 169 171 170 169 168 167 166 164 162
320 320 320 322 322 320 320 320 319 318 317 314 306 299 292 283 263 237 223 222 211 188 177 174 179 175 170 165 169 168 167 168 170 170 170 171 172 172 172 171 171 172 171 166
316 315 315 317 318 318 319 320 319 316 314 312 308 301 292 279 262 245 235 231 199 171 171 179 181 170 165 163 168 167 167 168 169 169 171 172 174 174 175 175 175 174 173 171
306 307 309 311 313 313 312 315 316 314 310 309 306 300 289 275 257 243 238 215 189 180 180 181 171 163 163 167 168 168 169 170 171 171 172 174 175 176 176 176 175 173 174 175
297 299 301 304 307 306 306 309 312 310 305 304 303 300 291 278 265 254 247 187 184 178 180 166 166 168 170 173 171 171 172 171 171 173 173 174 175 175 174 174 174 174 177 181
286 289 292 296 298 298 300 303 305 306 303 302 303 302 294 278 269 261 230 191 177 173 171 170 171 174 179 179 177 175 175 173 170 169 172 173 173 173 172 173 177 180 182 186
280 281 282 284 287 288 290 292 293 295 296 296 298 300 296 286 269 248 221 196 184 175 176 178 178 179 185 183 179 176 173 168 167 173 176 175 174 174 176 179 180 184 187 192
275 275 277 279 282 280 280 281 280 281 283 283 287 291 287 275 253 227 210 194 185 182 181 183 184 183 179 176 176 177 177 175 174 175 175 175 176 177 179 182 185 185 186 193
Height
1482 1483 1485 1485 1485 1487 1487 1482 1483 1477 1475 1470 1467 1469 1470 1472 1474 1475 1477 1478 1480 1482 1484 1486 1488 1490 1492 1493 1494 1495 1496 1496 1496 1496 1496 1495 1494 1492 1491 1490 1489 1488 1486 1485
1483 1482 1483 1484 1481 1480 1481 1479 1477 1475 1472 1464 1465 1466 1467 1468 1469 1471 1472 1474 1475 1478 1480 1482 1485 1487 1489 1491 1492 1493 1494 1495 1495 1494 1494 1493 1493 1492 1491 1489 1489 1487 1486 1485
1483 1479 1482 1481 1472 1473 1473 1471 1472 1471 1465 1461 1462 1462 1463 1463 1465 1466 1467 1469 1471 1473 1476 1478 1481 1484 1486 1488 1489 1491 1492 1493 1493 1493 1493 1492 1491 1491 1490 1489 1488 1487 1486 1485
1482 1482 1490 1471 1466 1467 1468 1466 1464 1463 1461 1461 1461 1460 1460 1460 1461 1462 1463 1465 1467 1469 1472 1475 1478 1480 1483 1485 1487 1488 1490 1491 1491 1491 1491 1491 1490 1489 1489 1488 1487 1486 1485 1484
1482 1483 1477 1467 1464 1466 1467 1464 1460 1459 1459 1459 1459 1458 1456 1456 1457 1458 1460 1462 1463 1466 1469 1472 1474 1477 1479 1482 1484 1485 1487 1488 1489 1489 1489 1489 1489 1488 1488 1487 1486 1485 1485 1484
1481 1484 1482 1467 1463 1464 1466 1463 1459 1459 1458 1458 1458 1455 1452 1454 1454 1455 1457 1458 1460 1463 1466 1468 1471 1474 1476 1479 1481 1482 1484 1485 1486 1487 1487 1487 1487 1487 1486 1486 1485 1484 1483 1483
1478 1478 1468 1460 1463 1466 1469 1463 1460 1459 1458 1458 1457 1455 1454 1453 1453 1453 1454 1455 1457 1460 1462 1465 1468 1470 1473 1475 1478 1479 1481 1482 1483 1484 1485 1485 1485 1485 1485 1484 1484 1483 1482 1481
1473 1477 1471 1462 1463 1463 1461 1461 1460 1459 1458 1457 1455 1454 1452 1452 1451 1451 1451 1453 1455 1457 1459 1462 1464 1467 1469 1472 1474 1476 1477 1479 1480 1481 1482 1482 1483 1483 1483 1483 1482 1482 1481 1480
1465 1464 1462 1463 1463 1463 1463 1461 1459 1458 1457 1455 1453 1451 1450 1449 1449 1449 1449 1450 1452 1454 1456 1458 1460 1463 1466 1468 1470 1472 1474 1476 1477 1478 1479 1480 1480 1481 1481 1480 1480 1480 1480 1479
1464 1459 1460 1462 1462 1462 1461 1460 1458 1456 1454 1452 1451 1449 1447 1446 1446 1445 1446 1447 1448 1450 1452 1454 1456 1459 1462 1464 1466 1468 1471 1472 1474 1475 1476 1477 1477 1478 1478 1478 1478 1478 1478 1477
1462 1459 1459 1459 1459 1459 1458 1457 1455 1453 1451 1449 1447 1446 1445 1443 1442 1442 1442 1443 1444 1446 1448 1450 1452 1455 1457 1460 1462 1465 1467 1469 1471 1472 1473 1473 1474 1474 1474 1474 1475 1475 1475 1474
1459 1458 1458 1456 1457 1456 1454 1453 1451 1449 1446 1445 1444 1442 1440 1439 1438 1437 1437 1438 1439 1441 1443 1445 1447 1450 1452 1455 1458 1461 1463 1465 1467 1468 1469 1470 1471 1471 1471 1471 1471 1472 1471 1471
1459 1458 1457 1455 1453 1452 1450 1448 1446 1444 1442 1440 1438 1437 1435 1434 1433 1432 1432 1433 1434 1435 1437 1440 1442 1445 1447 1450 1453 1456 1459 1460 1462 1463 1465 1466 1467 1468 1468 1469 1469 1469 1469 1469
1456 1455 1452 1450 1449 1447 1445 1443 1441 1439 1437 1435 1432 1431 1429 1428 1427 1426 1427 1427 1429 1430 1432 1434 1437 1439 1442 1445 1448 1451 1454 1455 1457 1459 1461 1462 1464 1465 1466 1466 1467 1466 1466 1466
1452 1451 1449 1447 1445 1443 1440 1438 1436 1433 1431 1429 1427 1425 1423 1422 1421 1421 1421 1422 1423 1424 1426 1429 1431 1434 1437 1439 1442 1445 1448 1450 1452 1454 1456 1458 1460 1461 1462 1463 1464 1464 1464 1464
1448 1446 1445 1443 1441 1439 1436 1433 1431 1428 1426 1423 1421 1419 1418 1416 1416 1415 1415 1416 1417 1418 1420 1422 1425 1428 1431 1434 1437 1440 1443 1445 1447 1450 1452 1454 1455 1457 1458 1460 1461 1461 1462 1462
1445 1443 1441 1439 1437 1435 1432 1430 1427 1424 1421 1419 1416 1414 1412 1410 1410 1409 1409 1410 1412 1413 1415 1417 1420 1423 1426 1429 1432 1435 1438 1440 1443 1445 1447 1449 1451 1453 1455 1456 1457 1458 1459 1459
1442 1441 1439 1437 1434 1432 1428 1426 1423 1420 1417 1414 1411 1409 1407 1405 1404 1404 1404 1405 1406 1408 1410 1411 1414 1417 1421 1424 1427 1430 1433 1435 1438 1440 1443 1445 1447 1449 1451 1453 1454 1455 1456 1457
1438 1437 1435 1433 1431 1428 1425 1422 1419 1415 1412 1409 1406 1404 1402 1401 1400 1399 1399 1400 1401 1402 1404 1406 1408 1412 1415 1418 1422 1425 1428 1431 1433 1436 1438 1441 1443 1445 1447 1449 1451 1452 1453 1454
1436 1434 1432 1430 1427 1425 1422 1418 1415 1411 1408 1406 1403 1400 1398 1396 1395 1395 1395 1395 1396 1398 1399 1401 1404 1406 1410 1413 1416 1420 1423 1426 1429 1432 1434 1437 1439 1442 1444 1446 1448 1449 1450 1451
1433 1431 1429 1426 1424 1421 1418 1415 1411 1408 1405 1402 1399 1397 1394 1392 1392 1391 1391 1391 1392 1393 1395 1397 1400 1402 1405 1408 1412 1415 1418 1422 1425 1428 1431 1433 1436 1438 1440 1442 1444 1446 1447 1448
1430 1428 1426 1423 1420 1417 1414 1411 1408 1404 1401 1398 1396 1393 1391 1389 1388 1388 1388 1388 1388 1389 1391 1393 1396 1398 1401 1404 1408 1411 1414 1417 1421 1424 1427 1430 1432 1435 1437 1439 1441 1442 1444 1445
1426 1424 1422 1419 1416 1413 1410 1407 1404 1401 1398 1395 1393 1390 1388 1386 1385 1385 1385 1385 1385 1387 1388 1390 1393 1395 1398 1402 1405 1407 1411 1414 1417 1420 1423 1426 1429 1431 1434 1435 1437 1438 1440 1441
1422 1420 1417 1415 1412 1409 1406 1403 1400 1397 1394 1392 1390 1387 1385 1384 1382 1382 1382 1382 1383 1384 1386 1388 1390 1393 1396 1399 1402 1405 1408 1411 1414 1417 1420 1423 1426 1428 1430 1432 1433 1435 1436 1437
1416 1414 1412 1409 1407 1404 1402 1398 1396 1393 1391 1388 1386 1384 1383 1381 1380 1379 1379 1379 1380 1381 1383 1386 1388 1391 1394 1397 1399 1402 1405 1408 1411 1414 1417 1420 1422 1424 1427 1428 1430 1431 1433 1434
1410 1408 1406 1404 1402 1399 1396 1394 1391 1389 1387 1385 1383 1381 1380 1379 1378 1377 1377 1377 1378 1379 1381 1383 1386 1388 1391 1394 1397 1400 1403 1406 1408 1411 1414 1416 1419 1421 1423 1425 1427 1428 1429 1430
1403 1401 1399 1397 1395 1393 1391 1389 1387 1385 1383 1382 1380 1378 1377 1376 1375 1375 1375 1375 1376 1377 1379 1381 1384 1386 1389 1392 1395 1398 1401 1403 1406 1409 1411 1414 1416 1418 1420 1421 1423 1424 1425 1426